Погода в Хабаране

Шри-Ланка     8°02′26″N   80°45′22″E
темп.,
°C
ветер,
м/с
пор.,
м/с
влажн.,
%
обл.,
%
осадки,
мм/ч
давл.,
гПа
погр.,
м
14 мая, пт
пт1423:30+24юз41287100 1.5 1008473
02:30+24юз51286100 0.1 1005513
05:30+25юз51287100 0.1 1005578
08:30+26юз61277100 0.0 1008798
11:30+29юз7116487 0.0 1008933
14:30+28зюз71272100 0.0 1006908
17:30+25зюз61384100 0.0 1006690
20:30+25зюз61386100 0.0 1008662
15 мая, сб
сб1523:30+25зюз51384100 0.0 1008787
02:30+24юз51287100 0.0 1006700
05:30+25зюз51285100 0.0 1007715
08:30+28юз6127581 0.0 10091003
11:30+31зюз8135899 0.0 10081527
14:30+30юз81661100 0.0 10061402
17:30+27зюз6147299 0.0 10061098
20:30+25юз81680100 0.0 10081082
16 мая, вс
вс1623:30+25юз71582100 0.0 10081049
02:30+25юз71779100 0.0 10071190
05:30+24юз61584100 0.1 10071101
08:30+25юз51281100 0.0 1009937
11:30+30юз71159100 0.0 10081383
14:30+31юз71155100 0.0 10061707
17:30+28юз596873 0.0 10061150
20:30+25ююз2581100 0.0 1008131
17 мая, пн
пн1723:30+25ю2272100 0.0 100837
02:30+24ююв1171100 0.0 100711
05:30+24юз227075 0.0 100718
08:30+28ююз2362100 0.0 1009279
11:30+34зюз454283 0.0 10081738
14:30+34зюз454525 0.0 10051561
17:30+31з47595 0.0 1005447
20:30+26юз247816 0.0 1008127
18 мая, вт
вт1823:30+25юз248498 0.0 1009158
02:30+25юз128530 0.0 100730
05:30+24зюз118759 0.0 100715
08:30+29юз246182 0.0 1009566
11:30+34зюз454330 0.0 10081738
14:30+35зюз554354 0.0 10052288
17:30+31зюз585923 0.0 1005948
20:30+27зюз511785 0.0 1008524